Location: Gad�tanya
(48.0500°N, 20.8500°E)
Time: 10:43:45
(UTC+00:00)

Cosmos 1076 Rocket - Pass Details

Date: 05 July 2020
Orbit: 589 x 613 km, 82.5° (Epoch: 14 August)

Event Time Altitude Azimuth Distance (km) Brightness Sun altitude
Exits shadow 21:36:06 26° 211° (SSW) 1,193 4.6 -17.8°
Maximum altitude 21:38:22 59° 282° (WNW) 696 3.9 -17.9°
Drops below altitude 10° 21:42:37 10° 3° (N) 1,944 7.2 -18.1°
Sets 21:44:52 0° 7° (N) 2,848 8.3 -18.2°
